GW6884 Weather Reports


time (UTC)temp
C
wind
direction
speed
KPH
gust
KPH
rain 1hr
cm
rain 24hr
cm
rain mn
cm
humidity
%
barometer
mb
20260906224532 23 89 9.7 14.5 0.00 0.00 0.00 42 1015.8
20260906223012 24 91 11.3 19.3 0.00 0.00 0.00 39 1016.0
20260906221519 24 113 8.0 17.7 0.00 0.00 0.00 40 1016.0
20260906220036 24 47 6.4 16.1 0.00 0.00 0.00 39 1016.2
20260906214530 24 165 9.7 16.1 0.00 0.00 0.00 40 1016.5
20260906213031 24 149 12.9 19.3 0.00 0.00 0.00 40 1016.4
20260906211514 23 75 9.7 16.1 0.00 0.00 0.00 42 1016.6
20260906210004 23 69 6.4 12.9 0.00 0.00 0.00 41 1016.7
20260906204503 23 88 6.4 14.5 0.00 0.00 0.00 42 1016.8
20260906203007 22 218 6.4 16.1 0.00 0.00 0.00 44 1017.1
20260906201512 23 154 8.0 16.1 0.00 0.00 0.00 43 1017.2
20260906200003 22 122 9.7 16.1 0.00 0.00 0.00 43 1017.4
20260906194504 22 85 4.8 14.5 0.00 0.00 0.00 48 1017.7
20260906193007 22 72 8.0 17.7 0.00 0.00 0.00 51 1018.0
20260906191510 22 122 9.7 17.7 0.00 0.00 0.00 46 1018.3
20260906190016 21 36 9.7 16.1 0.00 0.00 0.00 53 1018.5
20260906184512 20 187 3.2 12.9 0.00 0.00 0.00 50 1018.7
20260906183006 21 103 8.0 19.3 0.00 0.00 0.00 49 1019.1
20260906181507 20 18 4.8 17.7 0.00 0.00 0.00 58 1019.2
20260906180013 20 39 11.3 16.1 0.00 0.00 0.00 58 1019.4
20260906174520 20 58 6.4 17.7 0.00 0.00 0.00 57 1019.7
20260906173005 18 62 4.8 14.5 0.00 0.00 0.00 60 1019.8
20260906171507 19 41 3.2 11.3 0.00 0.00 0.00 55 1019.9
20260906170014 19 91 6.4 11.3 0.00 0.00 0.00 56 1019.9
20260906164517 18 100 8.0 12.9 0.00 0.00 0.00 57 1019.9
20260906163003 18 55 3.2 9.7 0.00 0.00 0.00 58 1019.9
20260906161506 18 131 4.8 11.3 0.00 0.00 0.00 60 1019.9
20260906160013 17 98 8.0 12.9 0.00 0.00 0.00 61 1019.8
20260906154535 17 173 6.4 12.9 0.00 0.00 0.00 63 1019.8
20260906153028 17 164 9.7 14.5 0.00 0.00 0.00 65 1019.8
20260906151504 17 164 8.0 12.9 0.00 0.00 0.00 63 1019.9
20260906150013 16 122 8.0 11.3 0.00 0.00 0.00 64 1020.0
20260906144517 16 122 8.0 9.7 0.00 0.00 0.00 66 1020.0
20260906143020 16 176 4.8 9.7 0.00 0.00 0.00 61 1020.1
20260906141527 15 205 4.8 6.4 0.00 0.00 0.00 60 1020.1
20260906140027 13 219 6.4 11.3 0.00 0.00 0.00 62 1020.1
20260906134512 12 214 4.8 8.0 0.00 0.00 0.00 68 1020.0
20260906133018 12 235 4.8 9.7 0.00 0.00 0.00 72 1020.0
20260906131533 12 229 8.0 11.3 0.00 0.00 0.00 67 1020.1
20260906130018 12 252 4.8 14.5 0.00 0.00 0.00 66 1020.1
20260906124513 12 238 8.0 16.1 0.00 0.00 0.00 64 1020.2
20260906123018 12 242 8.0 14.5 0.00 0.00 0.00 65 1020.2
20260906121525 12 239 8.0 16.1 0.00 0.00 0.00 65 1020.2
20260906120030 11 214 9.7 12.9 0.00 0.00 0.00 69 1020.3
20260906114514 11 197 6.4 8.0 0.00 0.00 0.00 69 1020.3
20260906113016 12 238 6.4 14.5 0.00 0.00 0.00 66 1020.4
20260906111521 12 236 9.7 12.9 0.00 0.00 0.00 65 1020.5
20260906110027 12 240 6.4 8.0 0.00 0.00 0.00 70 1020.5
20260906104535 11 229 6.4 8.0 0.00 0.00 0.00 71 1020.5
20260906103014 12 251 3.2 6.4 0.00 0.00 0.00 71 1020.5
20260906101518 12 264 3.2 12.9 0.00 0.00 0.00 67 1020.6
20260906100032 12 238 4.8 6.4 0.00 0.00 0.00 73 1020.5
20260906094530 12 204 3.2 4.8 0.00 0.00 0.00 72 1020.5
20260906093045 12 290 3.2 4.8 0.00 0.00 0.00 74 1020.5
20260906091513 12 237 0.0 0.0 0.00 0.00 0.00 71 1020.7
20260906090023 13 291 0.0 4.8 0.00 0.00 0.00 71 1020.7
20260906084534 13 265 3.2 4.8 0.00 0.00 0.00 69 1020.7
20260906083039 13 287 0.0 4.8 0.00 0.00 0.00 68 1020.9
20260906081517 13 315 0.0 4.8 0.00 0.00 0.00 69 1020.9
20260906080021 13 288 4.8 6.4 0.00 0.00 0.00 70 1021.0
20260906074514 13 314 1.6 3.2 0.00 0.00 0.00 69 1021.3
20260906073005 13 292 3.2 9.7 0.00 0.00 0.00 68 1021.3
20260906071508 13 275 4.8 8.0 0.00 0.00 0.00 69 1021.1
20260906070012 13 269 4.8 8.0 0.00 0.00 0.00 67 1021.1
20260906064503 12 243 4.8 6.4 0.00 0.00 0.00 65 1021.3
20260906063003 13 270 4.8 6.4 0.00 0.00 0.00 64 1021.5
20260906061509 13 317 3.2 8.0 0.00 0.00 0.00 62 1021.6
20260906060015 13 277 4.8 8.0 0.00 0.00 0.00 61 1021.5
20260906054514 13 277 4.8 6.4 0.00 0.00 0.00 58 1021.6
20260906053002 15 349 4.8 11.3 0.00 0.00 0.00 56 1021.5
20260906051507 15 293 6.4 9.7 0.00 0.00 0.00 55 1021.6
20260906050012 15 314 3.2 8.0 0.00 0.00 0.00 54 1021.7
20260906044514 15 307 6.4 11.3 0.00 0.00 0.00 53 1021.7
20260906043018 15 315 6.4 8.0 0.00 0.00 0.00 52 1021.7
20260906041505 15 323 4.8 8.0 0.00 0.00 0.00 51 1021.7
20260906040010 15 302 6.4 11.3 0.00 0.00 0.00 51 1021.7
20260906034515 15 294 4.8 6.4 0.00 0.00 0.00 50 1021.6
20260906033019 15 299 3.2 6.4 0.00 0.00 0.00 50 1021.6
20260906031503 16 296 4.8 9.7 0.00 0.00 0.00 49 1021.5
20260906030008 16 320 4.8 9.7 0.00 0.00 0.00 49 1021.4
20260906024512 15 282 4.8 8.0 0.00 0.00 0.00 52 1021.3
20260906023021 15 285 4.8 8.0 0.00 0.00 0.00 51 1021.1
20260906021518 16 294 3.2 6.4 0.00 0.00 0.00 49 1021.1
20260906020005 16 288 4.8 9.7 0.00 0.00 0.00 47 1021.0
20260906014528 16 292 4.8 8.0 0.00 0.00 0.00 47 1020.8
20260906013022 16 293 4.8 6.4 0.00 0.00 0.00 47 1020.9
20260906011520 17 296 4.8 6.4 0.00 0.00 0.00 47 1020.8
20260906010049 17 323 1.6 4.8 0.00 0.00 0.00 47 1020.8
20260906004510 17 311 3.2 6.4 0.00 0.00 0.00 47 1020.9
20260906003012 18 293 6.4 8.0 0.00 0.00 0.00 47 1020.7
20260906001530 18 359 3.2 8.0 0.00 0.00 0.00 46 1020.7
20260906000027 20 354 6.4 11.3 0.00 0.00 0.00 41 1020.7
20260905234505 20 16 6.4 9.7 0.00 0.00 0.00 39 1020.6
20260905233013 20 8 6.4 9.7 0.00 0.00 0.00 39 1020.5
20260905231533 20 46 8.0 11.3 0.00 0.00 0.00 38 1020.4
20260905230024 20 68 6.4 12.9 0.00 0.00 0.00 37 1020.4